User: anonymous   Login
Location: Podia
(1.5569°N, 32.3469°E)
Time: 12:48:30
(UTC+00:00)
Language:

Explorer 7 - Orbit

View from above orbital plane
View from above orbital plane
View from above satellite
View from above satellite

Ground track
Ground track

The orbit data is extracted from the following two-line orbital elements,

1    22U 59009A   20270.15384098  .00000314  00000-0  46217-4 0  9998
2    22  50.2862 349.5529 0139443 283.4417  75.1021 14.95205125240397
Epoch (UTC): 26 September 2020 03:41:31
Eccentricity: 0.0139443
inclination: 50.2862°
perigee height: 484 km
apogee height: 679 km
right ascension of ascending node: 349.5529°
argument of perigee: 283.4417°
revolutions per day: 14.95205125
mean anomaly at epoch: 75.1021°
orbit number at epoch: 24039

The dashed part of the orbit path shows where the satellite is in the earth's shadow,  

DLR